trip booking engine
Besondere Bedürfnisse
Ärztliche Betreuung ...
Gruppenbuchungen
mindestens 10 zusammenreisenden Personen
hotel booking
Expedia
car booking
CarTrawler
ABSENDEN
Home > Suchen > Ziele > USA > Flug nach Houston

Flug nach Houston

Wann immer in Amerika ein bemanntes Raumschiff in den Weltall vorstößt, wurde der Einsatz in Houston koordiniert. Der Stadt hat jedoch noch einiges mehr zu bieten.

Houston ist die größte Stadt in Texas, verfügt über den wichtigsten Hafen der Vereinigten Staaten und ist Sitz des Lyndon B. Johnson Space Center. Alle aus Amerika gestarteten Raumfahrten werden von Houston vorbereitet und überwacht. Die Stadt liegt am Golf von Mexiko und weist ein heiß-feuchtes Klima auf. Zu den wichtigsten kulturellen Attraktionen zählen das Museum of Fine Arts, das Contemporary Arts Museum und die Menil Collection.

Das Stadtbild Houstons wird von modernen Wolkenkratzern dominiert. Das Civic Center ist das Handelszentrum der Stadt. Es beherbergt die wichtigsten Bürogebäude, darunter das Pennzoil Place und das Tenneco Building. Der alte Marktplatz bildet das historische Stadtzentrum von Houston. Hier befinden sich zahlreiche restaurierte Bauwerke. Einige alte Gebäude sind vollständig in den Sam Houston Historical Park verlegt worden.

 

Hinreise Ankunft Flug Mo Di Mi Do Fr Sa So
06:50 16:41 SN2726/8807/8881 X
06:50 19:05 SN2726/8803/8859 X
06:50 19:35 SN2726/8801/8919 X
06:50 23:59 SN2726/515/9066 X
06:50 23:59 SN2726/8801/9066 X
07:05 16:41 SN2726/8807/8881 X X X X X X
07:05 19:05 SN2726/8803/8859 X X X X
07:05 19:35 SN2726/8801/8919 X X X X X X
07:05 20:16 SN2726/8803/8859 X
07:05 23:59 SN2726/515/9066 X X X X
07:05 23:59 SN2726/8801/9066 X X X X
08:15 19:05 SN2712/8803/8859 X X X
08:15 19:35 SN2712/8801/8919 X X X X X
08:15 20:16 SN2712/8803/8859 X
08:15 23:59 SN2712/515/9066 X X X X
08:15 23:59 SN2712/8801/9066 X X X X
10:35 23:59 SN2714/515/9066 X
11:15 23:59 SN2714/515/9066 X X X X
12:50 23:59 SN2716/515/9066 X
12:50 16:41 SN2716/8807/8881 X X
17:10 16:41 SN2720/8807/8881 X X X X X X
17:10 19:05 SN2720/8803/8859 X X X X
17:10 19:35 SN2720/8801/8919 X X X X X X
17:10 20:16 SN2720/8803/8859 X
17:10 23:59 SN2720/8801/9066 X X X X
18:50 16:41 SN2722/8807/8881 X X X X X X
18:50 19:05 SN2722/8803/8859 X X X X
18:50 19:35 SN2722/8801/8919 X X X X X X
18:50 20:16 SN2722/8803/8859 X
18:50 23:59 SN2722/8801/9066 X X X X
21:05 16:41 SN2724/8807/8881 X X X X X X
21:05 19:05 SN2724/8803/8859 X X X X
21:05 19:35 SN2724/8801/8919 X X X X X X
21:05 20:16 SN2724/8803/8859 X
21:05 23:59 SN2724/515/9066 X X X X
21:05 23:59 SN2724/8801/9066 X X X X
 Bitte geben Sie Ihren Reisetipp ein
>
>
>



>
>
 
Ladevorgang
Hotel Angebote

Car Hire
Mietwagen - HOUSTON
Kleinwagen
Economy